Export;EXP-2023-01 (20230707 07:36);;;StationsCode;NL01483;NL01487;NL01488;NL01491;NL01492;NL01494;NL01496;NL49003;NL49007;NL49012;NL49014;NL49017
Periode;20120101 00:00 - 20130101 00:00;;;BeheerderMeetStation;DCMR;DCMR;DCMR;DCMR;DCMR;DCMR;DCMR;GGD A'dam;GGD A'dam;GGD A'dam;GGD A'dam;GGD A'dam
Bron;https://data.rivm.nl/data/luchtmeetnet;;;StationsNaam;Botlek-Spoortunnel;Rotterdam Zuid-Pleinweg;Rotterdam Zuid-Zwartewaalstraat;Rotterdam-Oost Sidelinge A13;Rotterdam-Vasteland;Schiedam-Alphons Arienstraat;Hoek v. Holland-Berghaven;Amsterdam-Nieuwendammerdijk;Amsterdam-Einsteinweg;Amsterdam-Van Diemenstraat;Amsterdam-Vondelpark;Amsterdam-Stadhouderskade
Beschrijving data;https://data.rivm.nl/data/luchtmeetnet/readme.pdf;;;Latitude,Longitude;(51.870069,4.318061);(51.891147,4.48069);(51.893617,4.487528);(51.938472,4.430692);(51.914264,4.479992);(51.921389,4.401389);(51.977803,4.121944);(52.389314,4.943822);(52.381331,4.845233);(52.389983,4.887811);(52.359714,4.866208);(52.358039,4.8997)
Accreditatienummer;https://www.rva.nl/alle-geaccrediteerden/;;;StationsGebied;stad;stad;stad;stad;stad;stad;voorstad;stad;stad;stad;stad;stad
;;;;StationsType;industrie;verkeer;achtergrond;verkeer;verkeer;achtergrond;industrie;achtergrond;verkeer;verkeer;achtergrond;verkeer
;;;;Meetprincipe;Multi-hoek absorptie fotometrie (MAAP);Multi-hoek absorptie fotometrie (MAAP);Multi-hoek absorptie fotometrie (MAAP);Multi-hoek absorptie fotometrie (MAAP);Multi-hoek absorptie fotometrie (MAAP);Multi-hoek absorptie fotometrie (MAAP);Multi-hoek absorptie fotometrie (MAAP);Multi-hoek absorptie fotometrie (MAAP);Multi-hoek absorptie fotometrie (MAAP);Multi-hoek absorptie fotometrie (MAAP);Multi-hoek absorptie fotometrie (MAAP);Multi-hoek absorptie fotometrie (MAAP)
;;;;Meetopstelling;Thermo Scientific 5012 MAAP  ;Thermo Scientific 5012 MAAP  ;Thermo Scientific 5012 MAAP  ;Thermo Scientific 5012 MAAP  ;Thermo Scientific 5012 MAAP  ;Thermo Scientific 5012 MAAP  ;Thermo Scientific 5012 MAAP  ;Thermo Scientific 5012 MAAP  ;Thermo Scientific 5012 MAAP  ;Thermo Scientific 5012 MAAP  ;Thermo Scientific 5012 MAAP  ;Thermo Scientific 5012 MAAP  
;;;;Accreditatienummer;L520;L520;L520;L520;L520;L520;L520;L426;L426;L426;L426;L426
Component;Bep.periode;Eenheid; Begindatumtijd;Einddatumtijd;NL01483;NL01487;NL01488;NL01491;NL01492;NL01494;NL01496;NL49003;NL49007;NL49012;NL49014;NL49017
BC;uur;�g/m�;20120101 00:00;20120101 01:00;0.346;4.061;4.061;;3.455;2.671;0.178;4.04;3.25;6.22;3.84;8.19
BC;uur;�g/m�;20120101 01:00;20120101 02:00;0.969;2.722;1.924;;1.568;1.773;0.246;6.02;4.26;7.55;6.68;9.31
BC;uur;�g/m�;20120101 02:00;20120101 03:00;0.487;1.109;0.561;;1.128;0.792;0.224;4.69;1.98;3.78;4.15;8.93
BC;uur;�g/m�;20120101 03:00;20120101 04:00;0.603;0.469;0.306;;0.894;0.539;0.158;1.76;0.75;1.34;1.99;7.26
BC;uur;�g/m�;20120101 04:00;20120101 05:00;0.254;0.256;0.206;;0.615;0.442;0.201;0.92;0.32;0.81;1.16;3.69
BC;uur;�g/m�;20120101 05:00;20120101 06:00;0.211;0.295;0.14;;0.626;0.277;0.195;0.37;0.27;0.66;0.27;3.52
BC;uur;�g/m�;20120101 06:00;20120101 07:00;0.309;0.171;0.146;;0.689;0.312;0.177;0.35;0.25;0.53;0.21;2.34
BC;uur;�g/m�;20120101 07:00;20120101 08:00;0.209;0.28;0.139;;0.498;0.292;0.132;0.28;0.27;0.34;0.13;1.78
BC;uur;�g/m�;20120101 08:00;20120101 09:00;0.278;0.307;0.207;;0.401;0.272;0.167;0.26;0.16;0.27;0.09;1.03
BC;uur;�g/m�;20120101 09:00;20120101 10:00;0.27;0.292;0.176;;0.355;0.318;0.216;0.26;0.25;0.24;0.18;0.72
BC;uur;�g/m�;20120101 10:00;20120101 11:00;0.413;0.167;0.113;;0.298;0.414;0.285;0.39;0.32;0.27;0.48;1.06
BC;uur;�g/m�;20120101 11:00;20120101 12:00;0.622;0.25;0.145;;0.454;0.378;0.255;0.27;0.64;0.86;0.35;0.94
BC;uur;�g/m�;20120101 12:00;20120101 13:00;0.969;0.527;0.247;;0.837;0.484;0.261;0.29;0.57;0.68;0.33;1.1
BC;uur;�g/m�;20120101 13:00;20120101 14:00;1.295;0.491;0.287;;0.791;0.418;0.523;0.34;0.47;0.74;0.38;1.1
BC;uur;�g/m�;20120101 14:00;20120101 15:00;1.89;1.024;0.347;;0.948;0.463;0.348;0.4;0.66;0.65;0.44;1.44
BC;uur;�g/m�;20120101 15:00;20120101 16:00;1.617;1.438;0.511;;0.838;0.536;1.238;0.31;1.48;1.25;0.43;1.27
BC;uur;�g/m�;20120101 16:00;20120101 17:00;1.589;3.093;0.58;;0.756;0.923;0.651;0.46;2.1;1.63;0.52;2.2
BC;uur;�g/m�;20120101 17:00;20120101 18:00;1.193;1.702;0.475;;0.587;0.568;0.729;0.68;3.56;2.67;0.78;2.77
BC;uur;�g/m�;20120101 18:00;20120101 19:00;0.879;1.908;0.439;;0.518;0.539;0.662;0.51;1.63;1.24;0.56;1.97
BC;uur;�g/m�;20120101 19:00;20120101 20:00;0.744;1.235;0.387;;0.483;0.473;0.508;0.41;1.21;0.88;0.45;1.49
BC;uur;�g/m�;20120101 20:00;20120101 21:00;0.624;0.894;0.374;;0.462;0.415;0.498;0.39;0.98;0.74;0.38;1.28
BC;uur;�g/m�;20120101 21:00;20120101 22:00;0.543;0.497;0.299;;0.612;0.319;0.548;0.32;0.47;0.46;0.27;1.22
BC;uur;�g/m�;20120101 22:00;20120101 23:00;0.657;1.188;0.678;;0.622;0.156;0.741;0.32;0.45;0.39;0.27;1.17
BC;uur;�g/m�;20120101 23:00;20120102 00:00;0.561;1.102;0.753;;0.801;0.14;0.954;0.19;0.31;0.29;0.19;1.08
BC;uur;�g/m�;20120102 00:00;20120102 01:00;0.409;0.453;0.34;;0.475;0.265;0.787;0.25;0.21;0.32;0.18;1.26
BC;uur;�g/m�;20120102 01:00;20120102 02:00;0.231;0.354;0.239;;0.469;0.386;0.613;0.3;0.24;0.3;0.21;1.07
BC;uur;�g/m�;20120102 02:00;20120102 03:00;0.272;0.207;0.19;;0.408;0.329;0.696;0.34;0.25;0.27;0.21;1.03
BC;uur;�g/m�;20120102 03:00;20120102 04:00;0.329;0.483;0.473;;0.461;0.346;0.92;0.3;0.29;0.33;0.25;1.59
BC;uur;�g/m�;20120102 04:00;20120102 05:00;0.926;0.929;0.788;;0.665;0.274;0.96;0.39;0.44;0.66;0.34;1.21
BC;uur;�g/m�;20120102 05:00;20120102 06:00;1.831;1.434;0.955;;0.971;0.342;1.273;0.46;0.59;0.54;0.38;0.93
BC;uur;�g/m�;20120102 06:00;20120102 07:00;4.277;2.618;1.44;;0.952;0.372;0.64;0.42;0.84;0.74;0.36;1.79
BC;uur;�g/m�;20120102 07:00;20120102 08:00;5.448;2.684;1.817;;1.311;0.829;0.798;0.36;1.12;0.88;0.48;1.77
BC;uur;�g/m�;20120102 08:00;20120102 09:00;5.364;2.512;1.67;;2.409;0.621;0.782;0.5;2.23;1.55;0.58;2.59
BC;uur;�g/m�;20120102 09:00;20120102 10:00;4.51;2.026;1.138;;2.697;0.642;1.458;0.59;1.94;1.74;0.65;2.67
BC;uur;�g/m�;20120102 10:00;20120102 11:00;3.854;1.095;0.594;;2.97;1.334;1.082;0.72;2.02;1.63;0.73;2.88
BC;uur;�g/m�;20120102 11:00;20120102 12:00;3.044;1.138;0.545;;2.335;0.951;1.136;0.87;1.83;1.38;0.95;2.66
BC;uur;�g/m�;20120102 12:00;20120102 13:00;3.088;1.175;0.581;;1.585;0.828;0.675;0.43;1.08;1.03;0.46;2.27
BC;uur;�g/m�;20120102 13:00;20120102 14:00;2.764;1.009;0.499;;1.313;0.686;0.931;0.39;0.92;0.82;0.35;2.57
BC;uur;�g/m�;20120102 14:00;20120102 15:00;2.608;1.59;0.626;;1.064;0.316;0.699;0.45;0.91;1.08;0.36;2.1
BC;uur;�g/m�;20120102 15:00;20120102 16:00;3.48;1.549;0.605;;1.39;0.314;0.406;0.35;0.86;0.99;0.41;2
BC;uur;�g/m�;20120102 16:00;20120102 17:00;4.076;2.364;0.71;;1.52;0.401;0.312;0.41;0.98;0.9;0.41;2.05
BC;uur;�g/m�;20120102 17:00;20120102 18:00;3.355;1.816;0.844;;1.748;0.61;0.575;0.47;0.82;0.83;0.49;2.09
BC;uur;�g/m�;20120102 18:00;20120102 19:00;2.289;1.558;0.857;;2.036;0.938;0.862;0.61;0.84;0.69;0.46;2.03
BC;uur;�g/m�;20120102 19:00;20120102 20:00;1.663;1.152;0.674;;2.285;0.677;0.744;0.62;0.8;0.73;0.49;2.4
BC;uur;�g/m�;20120102 20:00;20120102 21:00;2.273;1.237;0.793;;1.941;1.121;0.973;0.63;0.8;0.69;0.55;2.08
BC;uur;�g/m�;20120102 21:00;20120102 22:00;1.777;1.187;0.905;;1.435;0.929;1.62;0.83;1.15;1.17;0.74;2.18
BC;uur;�g/m�;20120102 22:00;20120102 23:00;1.555;1.318;1.127;;1.887;1.087;1.191;0.81;1.59;1.35;0.72;1.76
BC;uur;�g/m�;20120102 23:00;20120103 00:00;1.339;1.112;0.896;;1.46;0.952;1.384;0.92;1.22;1.07;0.79;1.86
BC;uur;�g/m�;20120103 00:00;20120103 01:00;0.7;0.811;0.723;;0.853;0.636;0.864;0.88;1.04;0.96;0.78;1.43
BC;uur;�g/m�;20120103 01:00;20120103 02:00;0.408;0.536;0.462;;0.759;0.489;0.627;0.72;0.89;0.89;0.72;1.19
BC;uur;�g/m�;20120103 02:00;20120103 03:00;0.376;0.407;0.401;;0.563;0.422;0.628;0.47;0.51;0.64;0.41;0.69
BC;uur;�g/m�;20120103 03:00;20120103 04:00;0.546;0.583;0.457;;0.535;0.511;0.563;0.33;0.41;0.35;0.3;0.58
BC;uur;�g/m�;20120103 04:00;20120103 05:00;0.607;0.519;0.385;;0.442;0.447;0.587;0.38;0.59;0.41;0.36;0.59
BC;uur;�g/m�;20120103 05:00;20120103 06:00;0.904;1.088;0.361;;0.367;0.38;0.471;0.35;0.74;0.48;0.35;0.54
BC;uur;�g/m�;20120103 06:00;20120103 07:00;1.945;1.389;0.481;;0.424;0.442;0.451;0.36;1.5;0.63;0.33;0.78
BC;uur;�g/m�;20120103 07:00;20120103 08:00;1.678;1.317;0.468;;0.506;0.472;0.464;0.44;1.7;0.83;0.42;1.05
BC;uur;�g/m�;20120103 08:00;20120103 09:00;1.417;1.615;0.521;;0.613;0.56;0.473;0.49;2.08;1.33;0.55;1.35
BC;uur;�g/m�;20120103 09:00;20120103 10:00;1.352;0.937;0.349;;0.539;0.513;0.532;0.44;1.59;0.84;0.44;1.35
BC;uur;�g/m�;20120103 10:00;20120103 11:00;1.214;0.88;0.33;;0.565;0.478;0.494;0.36;1.15;0.93;0.37;1.14
BC;uur;�g/m�;20120103 11:00;20120103 12:00;1.269;0.724;0.38;;0.594;0.5;0.534;0.36;1.12;0.94;0.38;1.14
BC;uur;�g/m�;20120103 12:00;20120103 13:00;1.363;0.926;0.396;;0.576;0.54;0.486;0.36;1.06;1.39;0.36;1.05
BC;uur;�g/m�;20120103 13:00;20120103 14:00;1.427;1.018;0.266;;0.468;0.438;0.403;0.3;0.99;1.02;0.29;1.05
BC;uur;�g/m�;20120103 14:00;20120103 15:00;1.406;1.049;0.304;;0.563;0.51;0.706;0.29;1.07;0.96;0.31;1.03
BC;uur;�g/m�;20120103 15:00;20120103 16:00;1.655;2.232;0.625;;0.737;0.355;0.413;0.25;0.97;0.93;0.35;1.35
BC;uur;�g/m�;20120103 16:00;20120103 17:00;3.094;1.758;0.762;;1.457;1.25;0.84;0.44;1.62;1.2;0.49;2.2
BC;uur;�g/m�;20120103 17:00;20120103 18:00;2.136;1.772;0.51;;1.215;0.945;0.798;0.38;0.66;0.69;0.44;1.46
BC;uur;�g/m�;20120103 18:00;20120103 19:00;1.41;1.058;0.456;;1.104;0.548;0.642;0.4;0.5;0.56;0.35;1.43
BC;uur;�g/m�;20120103 19:00;20120103 20:00;0.774;1.149;0.513;;0.458;0.234;0.363;0.3;0.52;0.48;0.37;1.18
BC;uur;�g/m�;20120103 20:00;20120103 21:00;0.419;1.169;0.51;;0.52;0.189;0.246;0.14;0.34;0.26;0.23;0.71
BC;uur;�g/m�;20120103 21:00;20120103 22:00;0.444;1.269;0.712;;0.494;0.23;0.388;0.2;0.31;0.23;0.26;0.56
BC;uur;�g/m�;20120103 22:00;20120103 23:00;1.002;1.211;0.873;;0.709;0.215;0.479;0.25;0.33;0.3;0.23;0.82
BC;uur;�g/m�;20120103 23:00;20120104 00:00;0.765;0.804;0.559;;0.758;0.301;0.482;0.2;0.3;0.29;0.21;0.64
BC;uur;�g/m�;20120104 00:00;20120104 01:00;0.541;0.445;0.325;;0.618;0.478;0.656;0.26;0.24;0.23;0.17;0.77
BC;uur;�g/m�;20120104 01:00;20120104 02:00;0.396;0.338;0.274;;0.495;0.39;0.76;0.26;0.2;0.28;0.19;0.7
BC;uur;�g/m�;20120104 02:00;20120104 03:00;0.46;0.396;0.281;;0.379;0.35;0.449;0.25;0.21;0.24;0.2;0.52
BC;uur;�g/m�;20120104 03:00;20120104 04:00;0.451;0.629;0.552;;0.331;0.188;0.28;0.19;0.21;0.21;0.19;0.43
BC;uur;�g/m�;20120104 04:00;20120104 05:00;0.481;0.756;0.352;;0.232;0.221;0.141;0.2;0.21;0.19;0.14;0.42
BC;uur;�g/m�;20120104 05:00;20120104 06:00;0.581;0.703;0.266;;0.185;0.196;0.2;0.24;0.25;0.3;0.14;0.23
BC;uur;�g/m�;20120104 06:00;20120104 07:00;0.657;1.344;0.252;;0.262;0.226;0.147;0.32;0.45;0.45;0.17;0.47
BC;uur;�g/m�;20120104 07:00;20120104 08:00;0.729;1.427;0.283;;0.438;0.312;0.138;0.36;0.49;0.55;0.19;0.55
BC;uur;�g/m�;20120104 08:00;20120104 09:00;1.075;1.483;0.411;;0.522;0.367;0.22;0.38;0.69;0.7;0.26;0.86
BC;uur;�g/m�;20120104 09:00;20120104 10:00;0.803;2.646;0.52;;0.727;0.431;0.207;0.38;0.73;0.76;0.31;1.08
BC;uur;�g/m�;20120104 10:00;20120104 11:00;0.755;2.25;0.607;;0.917;0.429;0.803;0.41;0.76;0.8;0.3;1.48
BC;uur;�g/m�;20120104 11:00;20120104 12:00;0.85;2.38;0.813;;0.981;0.468;0.651;0.38;0.87;0.68;0.31;1.06
BC;uur;�g/m�;20120104 12:00;20120104 13:00;1.581;2.328;0.867;;0.925;0.41;0.41;0.24;0.81;;0.36;1.25
BC;uur;�g/m�;20120104 13:00;20120104 14:00;1.671;2.767;0.944;;1.233;0.405;0.442;0.31;0.88;0.61;0.42;1.34
BC;uur;�g/m�;20120104 14:00;20120104 15:00;3.326;1.939;1.017;;1.453;0.429;0.711;0.38;0.87;0.72;0.45;1.94
BC;uur;�g/m�;20120104 15:00;20120104 16:00;3.756;2.281;0.963;;1.878;0.617;0.827;0.48;0.92;0.67;0.46;1.87
BC;uur;�g/m�;20120104 16:00;20120104 17:00;4.105;2.038;0.881;;1.444;0.621;1.206;0.56;0.84;0.8;0.53;1.77
BC;uur;�g/m�;20120104 17:00;20120104 18:00;2.967;1.965;0.772;;1.648;0.554;0.718;0.6;0.82;0.96;0.51;1.92
BC;uur;�g/m�;20120104 18:00;20120104 19:00;1.892;1.4;0.689;;1.162;0.547;1.042;0.51;0.92;0.66;0.46;1.78
BC;uur;�g/m�;20120104 19:00;20120104 20:00;1.266;1.58;0.946;;1.019;0.571;0.636;0.58;0.8;0.81;0.57;1.92
BC;uur;�g/m�;20120104 20:00;20120104 21:00;0.812;0.716;0.326;;0.814;0.544;0.602;0.4;0.52;0.55;0.38;1.52
BC;uur;�g/m�;20120104 21:00;20120104 22:00;0.651;0.523;0.27;;0.643;0.329;0.585;0.35;0.43;0.39;0.32;1.03
BC;uur;�g/m�;20120104 22:00;20120104 23:00;0.529;0.449;0.181;;0.528;0.26;0.517;0.25;0.38;0.36;0.23;0.86
BC;uur;�g/m�;20120104 23:00;20120105 00:00;0.403;0.377;0.143;;0.38;0.218;0.482;0.21;0.29;0.26;0.18;0.73
BC;uur;�g/m�;20120105 00:00;20120105 01:00;0.29;0.248;0.135;;0.277;0.172;0.395;0.21;0.22;0.24;0.14;0.73
BC;uur;�g/m�;20120105 01:00;20120105 02:00;0.216;0.166;0.13;;0.28;0.185;0.339;0.17;0.16;0.19;0.13;0.44
BC;uur;�g/m�;20120105 02:00;20120105 03:00;0.316;0.224;0.216;;0.277;0.176;0.558;0.16;0.14;0.16;0.12;0.45
BC;uur;�g/m�;20120105 03:00;20120105 04:00;0.293;0.235;0.211;;0.207;0.112;0.552;0.16;0.15;0.16;0.12;0.44
BC;uur;�g/m�;20120105 04:00;20120105 05:00;0.299;0.312;0.308;;0.23;0.102;0.783;0.11;0.13;0.13;0.09;0.27
BC;uur;�g/m�;20120105 05:00;20120105 06:00;0.626;0.486;0.395;;0.356;0.128;0.665;0.15;0.19;0.19;0.07;0.17
BC;uur;�g/m�;20120105 06:00;20120105 07:00;0.875;1.102;0.52;;0.518;0.19;0.404;0.2;0.38;0.29;0.11;0.36
BC;uur;�g/m�;20120105 07:00;20120105 08:00;0.587;1.5;0.353;;0.359;0.301;0.244;0.28;0.55;0.43;0.18;0.64
BC;uur;�g/m�;20120105 08:00;20120105 09:00;0.881;1.694;0.412;;0.529;0.363;0.274;0.31;0.76;0.56;0.24;0.77
BC;uur;�g/m�;20120105 09:00;20120105 10:00;0.806;1.533;0.451;;0.497;0.314;0.156;0.34;0.66;0.5;0.25;0.92
BC;uur;�g/m�;20120105 10:00;20120105 11:00;0.766;;0.466;;0.447;0.267;0.084;0.33;0.45;0.56;0.2;0.62
BC;uur;�g/m�;20120105 11:00;20120105 12:00;0.96;1.831;0.334;;0.31;0.321;0.105;0.32;0.51;0.55;0.24;0.84
BC;uur;�g/m�;20120105 12:00;20120105 13:00;1.014;1.513;0.33;;0.322;0.262;0.134;0.26;0.51;0.58;0.34;0.94
BC;uur;�g/m�;20120105 13:00;20120105 14:00;1.389;1.622;0.352;;0.381;0.369;;0.37;0.54;0.62;0.3;0.96
BC;uur;�g/m�;20120105 14:00;20120105 15:00;1.602;1.385;0.311;;0.412;0.369;;0.34;0.58;0.65;0.3;1.03
BC;uur;�g/m�;20120105 15:00;20120105 16:00;1.374;1.229;0.316;;0.376;0.302;;0.22;0.86;0.55;0.36;0.98
BC;uur;�g/m�;20120105 16:00;20120105 17:00;1.702;1.67;0.329;;0.457;0.356;;0.31;1.19;0.63;0.64;1.25
BC;uur;�g/m�;20120105 17:00;20120105 18:00;1.325;1.051;0.372;;0.392;0.234;0.082;0.34;1.33;0.39;0.57;1.08
BC;uur;�g/m�;20120105 18:00;20120105 19:00;2.008;0.881;0.27;;0.304;0.197;0.044;0.31;0.9;0.25;0.37;0.8
BC;uur;�g/m�;20120105 19:00;20120105 20:00;1.644;0.708;0.255;;0.241;0.166;0.088;0.28;0.6;0.22;0.3;0.74
BC;uur;�g/m�;20120105 20:00;20120105 21:00;1.499;0.625;0.229;;0.205;0.135;0.065;0.22;0.49;0.2;0.36;0.65
BC;uur;�g/m�;20120105 21:00;20120105 22:00;1.226;0.474;0.264;;0.188;0.107;0.051;0.17;0.41;0.21;0.38;0.66
BC;uur;�g/m�;20120105 22:00;20120105 23:00;1.313;0.432;0.184;;0.199;0.094;0.062;0.1;0.39;0.16;0.26;0.4
BC;uur;�g/m�;20120105 23:00;20120106 00:00;2.087;0.349;0.155;;0.145;0.077;0.06;0.09;0.35;0.15;0.25;0.44
BC;uur;�g/m�;20120106 00:00;20120106 01:00;2.756;0.299;0.146;;0.154;0.066;0.081;0.07;0.22;0.12;0.3;0.5
BC;uur;�g/m�;20120106 01:00;20120106 02:00;2.264;0.212;0.123;;0.175;0.049;0.04;0.06;0.17;0.12;0.2;0.4
BC;uur;�g/m�;20120106 02:00;20120106 03:00;1.762;0.199;0.109;;0.098;0.048;0.041;0.07;0.16;0.11;0.13;0.52
BC;uur;�g/m�;20120106 03:00;20120106 04:00;1.479;0.169;0.106;;0.125;0.05;0.021;0.05;0.15;0.1;0.17;0.44
BC;uur;�g/m�;20120106 04:00;20120106 05:00;1.665;0.219;0.111;;0.104;0.049;0.022;0.05;0.18;0.11;0.13;1.12
BC;uur;�g/m�;20120106 05:00;20120106 06:00;1.666;0.425;0.153;;0.121;0.072;0.021;0.06;0.3;0.23;0.12;0.37
BC;uur;�g/m�;20120106 06:00;20120106 07:00;1.784;0.619;0.197;;0.177;0.172;0.02;0.1;0.67;0.29;0.16;0.41
BC;uur;�g/m�;20120106 07:00;20120106 08:00;1.96;0.744;0.267;;0.23;0.334;0.023;0.13;1.08;0.27;0.32;0.81
BC;uur;�g/m�;20120106 08:00;20120106 09:00;2.244;0.85;0.333;;0.303;0.241;0.022;0.19;1.32;0.5;0.48;0.85
BC;uur;�g/m�;20120106 09:00;20120106 10:00;1.436;1.06;0.371;;0.38;0.3;0.031;0.23;1.5;0.45;0.65;0.9
BC;uur;�g/m�;20120106 10:00;20120106 11:00;2.014;1.145;0.422;;0.408;0.29;0.027;0.19;1.45;0.65;0.52;1.28
BC;uur;�g/m�;20120106 11:00;20120106 12:00;4.83;1.295;0.441;;0.404;0.296;0.066;0.19;1.61;0.56;0.54;1.12
BC;uur;�g/m�;20120106 12:00;20120106 13:00;2.453;1.231;0.405;;0.447;0.296;0.051;0.22;1.55;0.4;0.56;1.1
BC;uur;�g/m�;20120106 13:00;20120106 14:00;2.561;1.258;0.389;;0.491;0.243;0.192;0.2;1.4;0.42;0.56;1.57
BC;uur;�g/m�;20120106 14:00;20120106 15:00;3.61;2.197;0.413;;0.548;0.238;0.122;0.27;1.27;0.57;0.81;1.49
BC;uur;�g/m�;20120106 15:00;20120106 16:00;2.423;3.573;0.45;;0.67;0.35;0.12;0.3;0.96;0.69;0.94;1.9
BC;uur;�g/m�;20120106 16:00;20120106 17:00;2.16;4.756;0.613;;0.874;0.466;0.78;0.75;1.37;1.04;0.95;1.98
BC;uur;�g/m�;20120106 17:00;20120106 18:00;1.936;4.669;0.711;;1.563;0.806;0.659;0.81;1.38;1.24;0.74;2.08
BC;uur;�g/m�;20120106 18:00;20120106 19:00;3.164;4.286;1.659;;1.988;0.774;0.418;0.54;1.58;0.82;0.86;2.22
BC;uur;�g/m�;20120106 19:00;20120106 20:00;2.64;2.494;1.289;;2.4;0.649;0.59;0.57;1.03;0.83;0.82;2.14
BC;uur;�g/m�;20120106 20:00;20120106 21:00;1.849;1.376;0.864;;2.332;0.924;0.931;0.8;0.84;0.92;0.64;2.18
BC;uur;�g/m�;20120106 21:00;20120106 22:00;1.726;1.555;0.928;;1.707;1.025;1.474;0.82;0.82;0.87;0.81;2.39
BC;uur;�g/m�;20120106 22:00;20120106 23:00;2.267;1.886;1.457;;2.192;1.464;2.009;0.98;1.2;1.21;1.13;1.96
BC;uur;�g/m�;20120106 23:00;20120107 00:00;1.9;1.893;1.623;;2.643;1.639;1.588;0.86;1.24;1.3;0.99;1.96
BC;uur;�g/m�;20120107 00:00;20120107 01:00;1.56;1.501;1.439;;2.142;1.548;2.13;1.05;1.32;1.56;1.11;2.7
BC;uur;�g/m�;20120107 01:00;20120107 02:00;1.232;1.289;1.286;;1.8;1.35;1.518;1.07;1.08;1.08;1.11;2.54
BC;uur;�g/m�;20120107 02:00;20120107 03:00;0.947;0.911;0.782;;1.557;1.145;1.533;1.04;0.89;1.02;0.9;2.05
BC;uur;�g/m�;20120107 03:00;20120107 04:00;;;;;;;;0.88;0.76;0.83;0.73;2.12
BC;uur;�g/m�;20120107 04:00;20120107 05:00;0.604;0.662;0.477;;0.773;0.463;0.965;0.61;0.6;0.57;0.58;1.78
BC;uur;�g/m�;20120107 05:00;20120107 06:00;0.65;0.677;0.579;;0.718;0.297;0.608;0.45;0.51;0.67;0.48;1.22
BC;uur;�g/m�;20120107 06:00;20120107 07:00;0.66;1.075;0.883;;0.482;0.31;0.728;0.32;0.47;0.39;0.36;0.65
BC;uur;�g/m�;20120107 07:00;20120107 08:00;0.48;1.34;0.797;;0.433;0.306;0.507;0.25;0.41;0.32;0.27;0.48
BC;uur;�g/m�;20120107 08:00;20120107 09:00;0.934;1.172;0.434;;0.307;0.324;0.372;0.36;0.38;0.44;0.19;0.57
BC;uur;�g/m�;20120107 09:00;20120107 10:00;1.166;1.165;0.443;;0.215;0.282;0.304;0.41;0.51;0.57;0.29;0.77
BC;uur;�g/m�;20120107 10:00;20120107 11:00;1.474;1.652;0.528;;0.371;0.352;0.385;0.46;0.64;0.65;0.39;0.83
BC;uur;�g/m�;20120107 11:00;20120107 12:00;1.31;1.844;0.432;;0.373;0.337;0.304;0.49;0.51;0.57;0.29;0.83
BC;uur;�g/m�;20120107 12:00;20120107 13:00;1.283;1.895;0.435;;0.353;0.316;0.246;0.48;0.49;0.6;0.31;0.92
BC;uur;�g/m�;20120107 13:00;20120107 14:00;0.92;1.534;0.466;;0.382;0.392;0.244;0.45;0.52;0.56;0.39;0.88
BC;uur;�g/m�;20120107 14:00;20120107 15:00;1.398;1.637;0.454;;0.402;0.421;0.163;0.48;0.57;0.46;0.36;0.91
BC;uur;�g/m�;20120107 15:00;20120107 16:00;1.154;1.916;0.373;;0.352;0.35;0.125;0.32;0.75;0.41;0.4;1.25
BC;uur;�g/m�;20120107 16:00;20120107 17:00;1.504;2.544;0.432;;0.698;0.336;0.169;0.29;0.72;0.38;0.55;1.09
BC;uur;�g/m�;20120107 17:00;20120107 18:00;1.591;2.169;0.382;;0.534;0.349;0.2;0.39;0.74;0.38;0.68;1.22
BC;uur;�g/m�;20120107 18:00;20120107 19:00;1.23;2.532;0.58;;0.649;0.394;0.217;0.4;0.67;0.45;0.56;1.34
BC;uur;�g/m�;20120107 19:00;20120107 20:00;2.217;2.569;0.835;;0.539;0.35;0.349;0.56;0.83;0.61;0.54;1.47
BC;uur;�g/m�;20120107 20:00;20120107 21:00;1.161;2.622;0.743;;0.722;0.593;0.94;0.55;0.61;0.62;0.46;1.17
BC;uur;�g/m�;20120107 21:00;20120107 22:00;1.343;2.15;0.752;;0.908;0.686;1.033;0.62;0.51;0.52;0.44;1.04
BC;uur;�g/m�;20120107 22:00;20120107 23:00;;;;;;;;0.51;0.51;0.54;0.46;1.27
BC;uur;�g/m�;20120107 23:00;20120108 00:00;1.298;2.153;0.689;;0.91;0.483;0.872;0.45;0.49;0.51;0.47;1.3
BC;uur;�g/m�;20120108 00:00;20120108 01:00;1.372;1.499;0.585;;0.697;0.455;0.607;0.44;0.51;0.52;0.59;1.41
BC;uur;�g/m�;20120108 01:00;20120108 02:00;1.152;1.401;0.598;;0.705;0.429;0.466;0.43;0.39;0.44;0.43;1.2
BC;uur;�g/m�;20120108 02:00;20120108 03:00;1.199;1.001;0.602;;0.515;0.349;0.433;0.47;0.36;0.58;0.39;1.65
BC;uur;�g/m�;20120108 03:00;20120108 04:00;;;0.635;;;;;0.36;0.47;0.38;0.37;1.29
BC;uur;�g/m�;20120108 04:00;20120108 05:00;1.336;0.909;0.521;;0.382;0.313;0.276;0.3;0.61;0.4;0.48;1.53
BC;uur;�g/m�;20120108 05:00;20120108 06:00;3.158;0.632;0.308;;0.34;0.249;0.29;0.29;0.59;0.37;0.41;1.28
BC;uur;�g/m�;20120108 06:00;20120108 07:00;3.768;0.512;0.271;;0.299;0.228;0.267;0.2;0.38;0.29;0.41;0.56
BC;uur;�g/m�;20120108 07:00;20120108 08:00;3.909;0.521;0.275;;0.292;0.256;0.319;0.13;0.47;0.31;0.36;0.82
BC;uur;�g/m�;20120108 08:00;20120108 09:00;5.367;0.563;0.275;;0.264;0.263;0.269;0.13;0.37;0.24;0.36;0.52
BC;uur;�g/m�;20120108 09:00;20120108 10:00;3.326;0.799;0.368;;0.311;0.274;0.215;0.14;0.42;0.26;0.44;0.4
BC;uur;�g/m�;20120108 10:00;20120108 11:00;4.224;0.686;0.319;;0.395;0.236;0.22;0.17;0.75;0.27;0.44;0.81
BC;uur;�g/m�;20120108 11:00;20120108 12:00;4.991;0.8;0.351;;0.45;0.206;0.209;0.17;0.52;0.24;0.44;0.64
BC;uur;�g/m�;20120108 12:00;20120108 13:00;3.743;1.037;0.324;;0.313;0.433;0.22;0.19;0.62;0.27;0.47;0.7
BC;uur;�g/m�;20120108 13:00;20120108 14:00;3.153;1.284;0.33;;0.334;0.182;0.215;0.2;0.56;0.24;0.48;1.06
BC;uur;�g/m�;20120108 14:00;20120108 15:00;5.041;1.722;0.286;;0.369;0.188;0.204;0.24;0.8;0.25;0.44;1.02
BC;uur;�g/m�;20120108 15:00;20120108 16:00;2.612;1.716;0.312;;0.389;0.28;0.247;0.26;0.79;0.27;0.53;0.89
BC;uur;�g/m�;20120108 16:00;20120108 17:00;2.642;2.114;0.407;;0.727;0.312;0.315;0.31;0.74;0.32;0.68;1.21
BC;uur;�g/m�;20120108 17:00;20120108 18:00;2.189;2.391;0.478;;0.821;0.352;0.256;0.5;0.75;0.32;0.73;1.38
BC;uur;�g/m�;20120108 18:00;20120108 19:00;2.228;2.96;0.541;;0.946;0.438;0.196;0.54;0.82;0.32;1.01;1.16
BC;uur;�g/m�;20120108 19:00;20120108 20:00;2.889;3.831;0.933;;1.022;0.504;0.446;0.45;0.89;0.54;0.9;1.39
BC;uur;�g/m�;20120108 20:00;20120108 21:00;2.923;4.797;1.337;;1.596;0.68;0.679;0.67;1.32;1.28;0.91;1.56
BC;uur;�g/m�;20120108 21:00;20120108 22:00;1.925;5.382;2.079;;1.765;1.413;0.554;0.94;1.39;1.24;0.91;3.02
BC;uur;�g/m�;20120108 22:00;20120108 23:00;2.074;2.733;2.47;;3.052;1.566;1.031;1.04;1.79;1.43;0.88;2.54
BC;uur;�g/m�;20120108 23:00;20120109 00:00;1.484;1.366;1.209;;2.572;1.386;2.983;0.91;0.96;1.13;0.8;2
BC;uur;�g/m�;20120109 00:00;20120109 01:00;0.842;1.163;1.103;;1.87;1.171;2.122;0.61;0.73;0.71;0.56;1.66
BC;uur;�g/m�;20120109 01:00;20120109 02:00;1.078;1.107;0.846;;1.901;0.745;1.985;0.6;0.55;0.8;0.55;1.32
BC;uur;�g/m�;20120109 02:00;20120109 03:00;0.83;0.786;0.634;;1.507;1.24;1.89;0.71;0.61;0.63;0.53;1.33
BC;uur;�g/m�;20120109 03:00;20120109 04:00;0.858;0.65;0.556;;1.051;0.861;2.058;0.64;0.64;0.56;0.6;1.11
BC;uur;�g/m�;20120109 04:00;20120109 05:00;2.065;1.757;1.522;;1.559;1.019;1.617;0.69;0.75;0.75;0.65;1.3
BC;uur;�g/m�;20120109 05:00;20120109 06:00;3.368;4.115;2.255;;1.937;1.404;1.522;0.82;1.27;0.92;0.88;1.12
BC;uur;�g/m�;20120109 06:00;20120109 07:00;6.688;6.056;2.676;;2.575;1.778;1.226;1;2.43;1.63;1.1;2.34
BC;uur;�g/m�;20120109 07:00;20120109 08:00;3.781;5.388;3.176;;2.715;2.247;1.087;1.24;2.54;1.89;1.47;2.48
BC;uur;�g/m�;20120109 08:00;20120109 09:00;5.271;5.538;3.248;;2.922;2.369;1.291;1.28;3.44;2.06;1.62;3.1
BC;uur;�g/m�;20120109 09:00;20120109 10:00;5.67;5.508;3.328;;3.936;1.817;1.354;1.26;3.1;2.26;1.44;4.04
BC;uur;�g/m�;20120109 10:00;20120109 11:00;6.109;5.092;3.034;;4.023;2.018;1.401;1.16;2.06;2.37;1.05;3.79
BC;uur;�g/m�;20120109 11:00;20120109 12:00;5.409;4.287;2.861;;3.71;1.559;1.139;1.08;1.92;1.84;1.06;3
BC;uur;�g/m�;20120109 12:00;20120109 13:00;3.592;4.446;2.329;;2.225;0.957;0.902;0.79;1.82;1.66;0.94;2.61
BC;uur;�g/m�;20120109 13:00;20120109 14:00;4.604;3.648;1.709;;1.543;0.884;;0.62;;1.3;0.84;2.59
BC;uur;�g/m�;20120109 14:00;20120109 15:00;3.011;5.074;1.922;;1.836;1.185;0.827;0.67;;1.24;0.74;2.06